[[{"header":{"parameterUnit":"m.s-1","parameterCategory":1,"la1":30.2991,"la2":30.254,"lo1":-89.0895,"lo2":-89.0444,"dy":0.0017,"dx":0.0017,"nx":28,"ny":28,"refTime":"2025-03-17T09:00:00:Z","depth":0,"parameterNumber":2,"parameterNumberName":"U-component_of_WINDS"},"data":[0,0,0,0,0,0,0,0,0,0,0,0,0,0,0,0,0,0,0,0,0,0,0,0,0,0,0,0,0,0,0,0,0,0,0,0,0,0,0,0,0,0,0,0,0,0,0,0,0,0,0,0,0,0,0,0,0,0,0.6386,0.6387,0,0.6426,0.6427,0.6427,0.6433,0.6433,0.6432,0.6432,0.6473,0.6474,0.6476,0,0,0,0,0,0,0,0,0,0,0,0,0,0.6315,0.6316,0.6386,0.6387,0.6387,0.6426,0.6427,0.6427,0.6433,0.6433,0.6432,0.6432,0.6473,0.6474,0.6476,0,0,0,0,0,0,0,0,0,0,0,0,0,0.635,0.6317,0.6386,0.6395,0.6396,0.6426,0.6427,0.6428,0.6433,0.6433,0.6432,0.6432,0.6472,0.6474,0.6476,0.6501,0,0,0.6483,0.6484,0,0,0,0,0,0,0,0,0.6348,0.6352,0.6393,0.6394,0.6396,0.6424,0.6417,0.6452,0.6433,0.6419,0.6432,0.6431,0.6457,0.6461,0.6469,0.6503,0.6504,0.6483,0.6484,0.6485,0.6486,0,0,0,0,0,0,0,0.6345,0.635,0.6402,0.6394,0.6395,0.6397,0.6401,0.6424,0.6441,0.642,0.6421,0.6425,0.6458,0.6467,0.647,0.6505,0.6483,0.6485,0.6486,0.6487,0.6561,0.6562,0,0,0,0,0,0,0.6341,0.6348,0.6401,0.6403,0.637,0.6399,0.6403,0.6416,0.644,0.6444,0.6426,0.6426,0.6464,0.6468,0.6472,0.6502,0.6485,0.6487,0.6488,0.656,0.6561,0.6562,0,0,0,0,0,0,0.634,0.6346,0.6399,0.6376,0.6383,0.64,0.6414,0.6417,0.6426,0.6445,0.6448,0.6432,0.6463,0.6469,0.6494,0.6504,0.6488,0.649,0.656,0.6561,0.6562,0.6563,0,0,0,0,0,0,0.6338,0.6345,0.6354,0.6376,0.6384,0.642,0.6415,0.6418,0.643,0.643,0.6452,0.6455,0.6463,0.649,0.6496,0.6506,0.6492,0.6559,0.656,0.6561,0.6563,0.6564,0.6566,0,0,0,0,0,0.6335,0.6353,0.6355,0.6361,0.6396,0.6421,0.6425,0.6435,0.643,0.644,0.6452,0.6454,0.6502,0.6493,0.6499,0.651,0.6558,0.656,0.6561,0.6562,0.6564,0.6566,0,0,0,0,0,0,0.6332,0.6356,0.6358,0.6384,0.64,0.6422,0.6434,0.6437,0.6455,0.6454,0.6465,0.647,0.6495,0.6505,0.6495,0.6536,0.653,0.6532,0.6528,0.653,0.6532,0.6529,0.6494,0,0,0,0,0,0.6334,0.6352,0.6373,0.6393,0.6401,0.6416,0.6427,0.6434,0.6451,0.6458,0.6472,0.6488,0.6507,0.6519,0.6538,0.6564,0.6569,0.6575,0.6577,0.6578,0.6581,0.6596,0.6599,0.6567,0.6567,0.6567,0,0,0.6339,0.6355,0.6365,0.6393,0.6406,0.6425,0.6422,0.6442,0.6455,0.6461,0.6485,0.6496,0.6515,0.6541,0.6553,0.6551,0.6591,0.658,0.6581,0.6583,0.6598,0.6601,0.6603,0.6568,0.6568,0.6568,0,0,0.6358,0.6371,0.639,0.6404,0.6424,0.6434,0.6439,0.646,0.6467,0.6492,0.6497,0.6513,0.6546,0.6559,0.6571,0.6596,0.6598,0.6601,0.661,0.6625,0.6627,0.663,0.6639,0.6642,0.6603,0.6604,0.6604,0,0.6361,0.6389,0.64,0.6419,0.6432,0.6438,0.6457,0.647,0.6495,0.6503,0.65,0.6541,0.6555,0.6584,0.659,0.6599,0.6605,0.6599,0.6626,0.6629,0.6631,0.6639,0.6643,0.6604,0.6604,0.6604,0.6604,0,0.6393,0.6412,0.6425,0.645,0.6463,0.6483,0.6496,0.6509,0.6515,0.6525,0.655,0.6567,0.6589,0.6597,0.6602,0.6627,0.6625,0.6624,0.6618,0.6634,0.6642,0.6646,0.6604,0.6604,0.6604,0.6604,0,0,0.641,0.644,0.6445,0.6456,0.648,0.6495,0.6515,0.6537,0.6547,0.6565,0.6582,0.661,0.6609,0.6622,0.6629,0.6642,0.6661,0.6639,0.664,0.6643,0.669,0.669,0.6694,0.6663,0.6663,0.6664,0.6688,0,0.6431,0.6466,0.6477,0.6507,0.6525,0.6532,0.6549,0.6566,0.6576,0.6593,0.6605,0.6624,0.6622,0.663,0.6643,0.6656,0.667,0.6654,0.6679,0.668,0.6673,0.6698,0.6699,0.6721,0.6692,0.6692,0.6693,0,0.646,0.6478,0.651,0.6532,0.654,0.6555,0.6576,0.6593,0.6612,0.6618,0.6633,0.6639,0.6661,0.6654,0.6684,0.6673,0.6684,0.6692,0.6693,0.6695,0.6687,0.6701,0.6728,0.6731,0.6698,0.6697,0.6697,0,0.6469,0.6502,0.6525,0.6535,0.6561,0.6571,0.6583,0.6601,0.6614,0.6632,0.6641,0.6662,0.6673,0.6689,0.6701,0.6695,0.673,0.6724,0.6736,0.6736,0.6743,0.6742,0.6772,0.675,0.675,0.675,0.675,0,0.6491,0.651,0.653,0.6544,0.6566,0.6578,0.66,0.6611,0.6628,0.6645,0.6652,0.6668,0.6682,0.67,0.671,0.6733,0.6738,0.6745,0.6747,0.6744,0.6743,0.6751,0.6749,0.6751,0.6751,0.6751,0.6751,0,0.6505,0.6518,0.6544,0.6567,0.6573,0.6588,0.6608,0.6622,0.6633,0.6655,0.666,0.6678,0.6699,0.6713,0.674,0.6747,0.6772,0.6774,0.6766,0.6767,0.6778,0.6777,0.6814,0.6819,0.6794,0.6795,0.6795,0,0.6518,0.6533,0.6557,0.6569,0.6581,0.66,0.6613,0.6626,0.6639,0.6662,0.6674,0.6696,0.6714,0.6748,0.6764,0.6785,0.6787,0.6799,0.679,0.6787,0.6787,0.6786,0.6788,0.68,0.68,0.68,0.68,0,0.654,0.6546,0.6564,0.6586,0.6601,0.6618,0.6636,0.6645,0.6661,0.6676,0.6698,0.6712,0.674,0.6762,0.6785,0.6797,0.6801,0.6803,0.6807,0.6803,0.6798,0.6801,0.6769,0.6802,0.6801,0.6801,0.6801,0.6801,0.6553,0.6567,0.6586,0.6607,0.6622,0.6638,0.6653,0.6666,0.6685,0.6709,0.6715,0.6738,0.6758,0.6789,0.6801,0.682,0.6818,0.6824,0.6825,0.6827,0.6827,0.6795,0.6824,0.6824,0.6824,0.6824,0.6824,0,0.6575,0.6588,0.6607,0.6631,0.6648,0.6651,0.667,0.6684,0.6704,0.6722,0.674,0.6766,0.6788,0.6805,0.6827,0.6839,0.6841,0.6844,0.6843,0.6846,0.6827,0.6821,0.6842,0.6842,0.6842,0.6842,0.6842,0.6842,0.6589,0.6612,0.6621,0.6652,0.6665,0.6688,0.6699,0.6714,0.6728,0.6757,0.6775,0.6786,0.6804,0.6828,0.6848,0.6852,0.686,0.6862,0.6867,0.6849,0.6847,0.6845,0.684,0.6864,0.6864,0.6885,0.6885,0.6885]},{"header":{"parameterUnit":"m.s-1","parameterCategory":1,"la1":30.2991,"la2":30.254,"lo1":-89.0895,"lo2":-89.0444,"dy":0.0017,"dx":0.0017,"nx":28,"ny":28,"refTime":"2025-03-17T09:00:00:Z","depth":0,"parameterNumber":3,"parameterNumberName":"V-component_of_WINDS"},"data":[0,0,0,0,0,0,0,0,0,0,0,0,0,0,0,0,0,0,0,0,0,0,0,0,0,0,0,0,0,0,0,0,0,0,0,0,0,0,0,0,0,0,0,0,0,0,0,0,0,0,0,0,0,0,0,0,0,0,-4.5857,-4.5858,0,-4.595,-4.5951,-4.5952,-4.5913,-4.591,-4.5908,-4.5906,-4.5997,-4.6001,-4.6006,0,0,0,0,0,0,0,0,0,0,0,0,0,-4.5643,-4.5647,-4.5857,-4.5858,-4.5859,-4.595,-4.5951,-4.5952,-4.5913,-4.591,-4.5908,-4.5905,-4.5995,-4.6001,-4.6006,0,0,0,0,0,0,0,0,0,0,0,0,0,-4.5736,-4.5649,-4.5857,-4.5851,-4.5851,-4.595,-4.5951,-4.5953,-4.5914,-4.591,-4.5907,-4.5904,-4.5993,-4.6,-4.6007,-4.6115,0,0,-4.6027,-4.603,0,0,0,0,0,0,0,0,-4.5731,-4.5744,-4.5851,-4.5851,-4.5852,-4.5916,-4.5909,-4.6007,-4.5914,-4.589,-4.5906,-4.5902,-4.5972,-4.5981,-4.6005,-4.6119,-4.6123,-4.6028,-4.6032,-4.6035,-4.6037,0,0,0,0,0,0,0,-4.5724,-4.574,-4.5894,-4.5852,-4.5853,-4.5843,-4.5852,-4.5927,-4.5948,-4.5892,-4.5889,-4.5901,-4.5972,-4.5999,-4.6007,-4.6125,-4.6028,-4.6034,-4.6038,-4.604,-4.6335,-4.6339,0,0,0,0,0,0,-4.5718,-4.5735,-4.5891,-4.5896,-4.5782,-4.5849,-4.586,-4.5899,-4.5948,-4.5952,-4.5903,-4.5899,-4.5989,-4.5999,-4.601,-4.6143,-4.6035,-4.6041,-4.6045,-4.6332,-4.6336,-4.634,0,0,0,0,0,0,-4.5714,-4.5733,-4.5887,-4.5815,-4.5834,-4.5856,-4.5901,-4.5903,-4.5929,-4.5957,-4.596,-4.5927,-4.5987,-4.6001,-4.609,-4.6145,-4.6044,-4.605,-4.6327,-4.6333,-4.6338,-4.6407,0,0,0,0,0,0,-4.5708,-4.5731,-4.5773,-4.5816,-4.5838,-4.5967,-4.5904,-4.5907,-4.5942,-4.5936,-4.598,-4.5984,-4.5985,-4.6081,-4.6097,-4.6153,-4.6056,-4.6322,-4.633,-4.6336,-4.64,-4.6415,-4.6427,0,0,0,0,0,-4.57,-4.5787,-4.5776,-4.5795,-4.5891,-4.597,-4.5982,-4.5983,-4.5946,-4.5989,-4.6006,-4.5982,-4.6136,-4.609,-4.6108,-4.6167,-4.6319,-4.6328,-4.6336,-4.6394,-4.6412,-4.6427,0,0,0,0,0,0,-4.5748,-4.5793,-4.578,-4.5884,-4.5924,-4.5963,-4.6016,-4.6001,-4.6051,-4.6044,-4.6042,-4.6052,-4.6145,-4.6164,-4.6112,-4.6276,-4.6222,-4.6234,-4.626,-4.6277,-4.629,-4.6284,-4.6061,0,0,0,0,0,-4.5771,-4.5832,-4.5868,-4.5956,-4.5977,-4.5993,-4.6027,-4.6025,-4.6066,-4.6082,-4.6106,-4.6146,-4.6203,-4.6241,-4.6295,-4.6403,-4.6413,-4.6452,-4.6465,-4.6476,-4.6487,-4.6548,-4.6567,-4.6368,-4.6368,-4.6368,0,0,-4.5818,-4.585,-4.5889,-4.5966,-4.5997,-4.606,-4.6007,-4.6076,-4.6123,-4.6092,-4.6179,-4.6199,-4.6242,-4.6342,-4.6388,-4.6361,-4.6545,-4.6487,-4.6496,-4.6501,-4.6559,-4.6578,-4.6595,-4.6374,-4.6373,-4.6372,0,0,-4.5937,-4.5967,-4.6045,-4.6078,-4.6126,-4.6137,-4.6156,-4.6198,-4.6211,-4.6299,-4.6277,-4.6332,-4.6431,-4.6464,-4.6493,-4.6628,-4.6609,-4.6645,-4.6716,-4.6775,-4.6791,-4.6805,-4.6855,-4.6873,-4.6656,-4.6656,-4.6657,0,-4.5989,-4.6086,-4.6086,-4.6159,-4.6194,-4.6171,-4.625,-4.6281,-4.6343,-4.6368,-4.6338,-4.6463,-4.6491,-4.66,-4.6633,-4.6657,-4.6679,-4.6641,-4.6789,-4.6803,-4.6816,-4.6864,-4.6882,-4.6661,-4.666,-4.666,-4.6659,0,-4.6149,-4.6216,-4.6273,-4.6337,-4.6378,-4.6453,-4.6466,-4.6507,-4.6502,-4.6516,-4.6607,-4.664,-4.6701,-4.6727,-4.6721,-4.6836,-4.6818,-4.6789,-4.6735,-4.6839,-4.6884,-4.6902,-4.6667,-4.6666,-4.6664,-4.6663,0,0,-4.6299,-4.6365,-4.6387,-4.6417,-4.6469,-4.6521,-4.6595,-4.6657,-4.6694,-4.6738,-4.6801,-4.6886,-4.686,-4.6894,-4.6892,-4.6944,-4.7052,-4.6908,-4.6909,-4.6936,-4.7183,-4.7206,-4.7227,-4.7038,-4.7042,-4.7045,-4.718,0,-4.6424,-4.6557,-4.6561,-4.6682,-4.6745,-4.6725,-4.679,-4.6829,-4.6845,-4.69,-4.6916,-4.6978,-4.6937,-4.6958,-4.7009,-4.7028,-4.7101,-4.7018,-4.7098,-4.71,-4.709,-4.725,-4.7275,-4.7401,-4.7197,-4.72,-4.7202,0,-4.6587,-4.664,-4.6768,-4.6815,-4.6841,-4.69,-4.6959,-4.7012,-4.7056,-4.7063,-4.7103,-4.7094,-4.717,-4.7113,-4.7218,-4.7162,-4.7194,-4.7209,-4.7214,-4.7222,-4.7159,-4.7265,-4.7441,-4.746,-4.7229,-4.7227,-4.7225,0,-4.6687,-4.679,-4.6881,-4.6907,-4.6962,-4.7005,-4.7029,-4.707,-4.7109,-4.7159,-4.7185,-4.7243,-4.7275,-4.732,-4.7327,-4.7285,-4.7434,-4.7377,-4.7443,-4.7443,-4.7477,-4.7475,-4.7662,-4.7495,-4.7494,-4.7494,-4.7494,0,-4.6827,-4.6907,-4.6927,-4.6983,-4.7072,-4.7076,-4.7164,-4.7185,-4.7223,-4.7283,-4.7267,-4.7323,-4.7328,-4.7386,-4.7391,-4.7479,-4.7493,-4.7502,-4.7503,-4.7505,-4.7504,-4.7527,-4.7519,-4.7499,-4.7498,-4.7497,-4.7496,0,-4.6955,-4.6971,-4.7069,-4.7115,-4.7129,-4.7192,-4.7231,-4.7285,-4.7299,-4.7375,-4.7393,-4.7416,-4.7484,-4.7495,-4.7573,-4.7577,-4.7683,-4.7674,-4.7669,-4.7669,-4.7735,-4.773,-4.7945,-4.7975,-4.7786,-4.7788,-4.779,0,-4.7044,-4.7105,-4.7159,-4.7199,-4.7227,-4.7291,-4.7331,-4.7337,-4.7379,-4.7436,-4.7483,-4.755,-4.7603,-4.7712,-4.7735,-4.7795,-4.7789,-4.786,-4.7797,-4.7798,-4.7793,-4.779,-4.7797,-4.7872,-4.7874,-4.7876,-4.7877,0,-4.7201,-4.7207,-4.7266,-4.733,-4.7378,-4.7428,-4.7474,-4.7507,-4.752,-4.7568,-4.7638,-4.768,-4.7762,-4.7829,-4.789,-4.7914,-4.7899,-4.7897,-4.7916,-4.7919,-4.7915,-4.7921,-4.7704,-4.7892,-4.7891,-4.789,-4.7889,-4.7888,-4.7313,-4.7368,-4.7416,-4.7483,-4.7519,-4.7564,-4.7618,-4.7641,-4.77,-4.7769,-4.7769,-4.7846,-4.789,-4.7971,-4.8,-4.806,-4.8037,-4.8064,-4.8071,-4.8078,-4.8086,-4.7905,-4.8071,-4.807,-4.807,-4.807,-4.8069,0,-4.7472,-4.7502,-4.7564,-4.7632,-4.7685,-4.7668,-4.7719,-4.7764,-4.7834,-4.7877,-4.7931,-4.8013,-4.8078,-4.8107,-4.8172,-4.8215,-4.8209,-4.8231,-4.8229,-4.8236,-4.8102,-4.808,-4.8235,-4.8235,-4.8235,-4.8235,-4.8235,-4.8235,-4.7561,-4.7654,-4.7666,-4.7778,-4.7807,-4.7885,-4.7916,-4.7958,-4.7993,-4.8086,-4.8141,-4.816,-4.8198,-4.8266,-4.8325,-4.8332,-4.8357,-4.8383,-4.8387,-4.8261,-4.8245,-4.8229,-4.8209,-4.8388,-4.8388,-4.8516,-4.8517,-4.8518]}]]